Regional Weather Roundup
Issued by NWS

Home | Current Version | Previous Version | Text Only | Print | Product List | Glossary Off
Versions: 1 2 3 4 5 6 7 8 9 10 11 12 13 14 15 16 17 18 19 20 21 22 23 24 25 26 27 28 29 30 31 32 33 34 35 36 37 38 39 40 41 42 43 44 45 46 47 48 49 50

000
ASUS45 KABQ 211910
RWRNM
WEATHER ROUNDUP FOR NEW MEXICO
NATIONAL WEATHER SERVICE ALBUQUERQUE NM
100 PM MDT SUN SEP 21 2014

NOTE: "FAIR" MEANS FEW OR NO CLOUDS BELOW 12,000 FEET AGL WITH NO
       SIGNIFICANT WEATHER OR OBSTRUCTIONS TO VISION.

      THIS PRODUCT IS RELEASED AS TWO VERSIONS.  ONE VERSION NEAR
      THE TOP OF THE HOUR CONTAINING PRELIMINARY DATA FROM ALBUQUERQUE
      AND OTHER STATIONS.  A FINAL VERSION WITH ADDITIONAL DATA IS
      ISSUED ABOUT 10 MINUTES AFTER THE HOUR.

NMZ501-503-504-510>518-212000-
NORTHWEST PLATEAU/NORTHCENTRAL MOUNTAINS

CITY           SKY/WX    TMP DP  RH WIND       PRES   REMARKS
FARMINGTON     SUNNY     81  45  28 SE18G28   30.24F
LOS ALAMOS     MOSUNNY   74  42  32 SE15G24   30.41F
SANTA FE       PTSUNNY   79  47  32 SE22G28   30.34F
TAOS           MOSUNNY   77  39  25 SW13      30.38F
ANGEL FIRE     CLOUDY    69  41  36 S10G18    30.50F

$$
NMZ402-403-502-505>509-212000-
WESTCENTRAL MOUNTAINS/SOUTHWEST MOUNTAINS

CITY           SKY/WX    TMP DP  RH WIND       PRES   REMARKS
GALLUP         MOSUNNY   76  53  44 SE10G18   30.30F
GRANTS         PTSUNNY   79  48  34 SE9G21    30.34F
SILVER CITY    PTSUNNY   75  61  60 SE9G18    30.26F

$$
NMZ407-409-411-412-212000-
SOUTHERN DESERTS

CITY           SKY/WX    TMP DP  RH WIND       PRES   REMARKS
LORDSBURG      FAIR      81  63  54 MISG      30.16F
DEMING         PTSUNNY   80  63  55 E12       30.17F
LAS CRUCES     PTSUNNY   81  61  49 CALM      30.19F
HOLLOMAN AFB   MOSUNNY   81  63  53 W5        30.15F
ALAMOGORDO     MOSUNNY   79  64  61 S6        30.17F
T OR C         MOSUNNY   80  60  50 NW3       30.22F

$$
NMZ519>523-212000-
CENTRAL VALLEYS/CENTRAL HIGHLANDS

CITY           SKY/WX    TMP DP  RH WIND       PRES   REMARKS
ALBUQUERQUE    PTSUNNY   80  52  37 SE15G29   30.28F
DOUBLE EAGLE   PTSUNNY   77  54  44 SE17G24   30.32F
MORIARTY ARPT  CLOUDY    73  51  44 E18       30.37F
CLINES CORNERS CLOUDY    67  51  56 E22G31    30.40F
BELEN          MOCLDY    78  53  41 CALM      30.26F
SOCORRO        CLOUDY    78  57  48 CALM      30.23F

$$
NMZ524>526-539-540-212000-
SOUTHCENTRAL MOUNTAINS

CITY           SKY/WX    TMP DP  RH WIND       PRES   REMARKS
RUIDOSO        LGT RAIN  59  59 100 NE5       30.39F

$$
NMZ527>531-212000-
NORTHEAST HIGHLANDS/NORTHEAST PLAINS

CITY           SKY/WX    TMP DP  RH WIND       PRES   REMARKS
LAS VEGAS      PTSUNNY   73  52  47 SE12      30.42F
RATON          LGT RAIN  65  57  75 SE9       30.40S
CLAYTON        SUNNY     74  54  49 NE17      30.35F

$$
NMZ532>537-212000-
EASTCENTRAL PLAINS

CITY           SKY/WX    TMP DP  RH WIND       PRES   REMARKS
TUCUMCARI      MOSUNNY   80  59  48 E14G24    30.25F
CANNON AFB     MOSUNNY   79  57  46 E14       30.24F
CLOVIS AIRPORT   N/A     81  63  54 E16       30.26F

$$
NMZ028-029-538-212000-
SOUTHEAST PLAINS

CITY           SKY/WX    TMP DP  RH WIND       PRES   REMARKS
ROSWELL        LGT RAIN  69  66  90 NE6       30.21F
CARLSBAD       LGT RAIN  71  32  23 CALM      30.15F
HOBBS          CLOUDY    72  70  94 E8        30.22F


$$


USA.gov is the U.S. government's official web portal to all federal, state and local government web resources and services.